Regional Weather Roundup
Issued by NWS

Home | Current Version | Previous Version | Text Only | Print | Product List | Glossary Off
Versions: 1 2 3 4 5 6 7 8 9 10 11 12 13 14 15 16 17 18 19 20 21 22 23 24 25 26 27 28 29 30 31 32 33 34 35 36 37 38 39 40 41 42 43 44 45 46 47 48 49 50

000
ASUS43 KIND 190909
RWRIN

WEATHER ROUNDUP FOR INDIANA
NATIONAL WEATHER SERVICE INDIANAPOLIS IN
400 AM EST FRI JAN 19 2018

NOTE: "FAIR" INDICATES FEW OR NO CLOUDS BELOW 12,000 FEET WITH NO
SIGNIFICANT WEATHER AND/OR OBSTRUCTIONS TO VISIBILITY.

* - STATION DOES NOT REPORT WEATHER SUCH AS PRECIPITATION OR FOG.

+ - STATION NOT QUALITY CONTROLLED BY THE NATIONAL WEATHER SERVICE.
    USE DATA WITH CAUTION...ESPECIALLY DEWPOINT AND RELATIVE
    HUMIDITY OBSERVATIONS.

INZ001>003-010>013-019-020-191000-
NORTHWEST INDIANA

CITY           SKY/WX    TMP DP  RH WIND       PRES   REMARKS
GARY /AIRPORT/ FAIR      28  19  67 SW9G16    29.97F WCI  20
KNOX *+        FAIR      27  18  69 SW12      30.01S WCI  16
LA PORTE +     FAIR      23  17  77 SW10      29.99S WCI  12
MICHIGAN CITY+ FAIR      27  18  69 S9        29.99S WCI  17
MONTICELLO +   FAIR      23  14  68 SW12G17   30.04S WCI  11
RENSSELAER +   FAIR      25  16  68 SW14      30.03S WCI  13
VALPARAISO     FAIR      24  16  71 S10       29.99S WCI  14

$$

LMZ046-743>745-191000-
SOUTHERN LAKE MICHIGAN

STATION/POSITION TIME  TEMP    WIND        PRES    WAVE
                       AIR SEA DIR/SP/G            HT
                 (UTC) (F)     (DEG/KT/KT) (MB)    (FT)
BURNS HARBOR     0902   29     210/ 13/ 19 1015.2
MICHIGAN CITY    0840   29     190/ 17/ 21   N/A

$$

INZ004-005-014>016-021>024-191000-
NORTH CENTRAL INDIANA

CITY           SKY/WX    TMP DP  RH WIND       PRES   REMARKS
GOSHEN         FAIR      23  14  68 SW15G25   29.99F WCI  10
LOGANSPORT +   FAIR      23  14  68 SW14      30.06S WCI  11
PERU/GRISSOM   FAIR      23  15  72 SW15      30.04S WCI  10
ROCHESTER +    FAIR      27  18  69 SW9G16    30.03S WCI  17
SOUTH BEND     FAIR      23  15  71 SW12      29.99S WCI  12
WARSAW +       FAIR      25  14  63 SW6       30.01F WCI  18

$$

INZ006>009-017-018-025>027-191000-
NORTHEAST INDIANA

CITY           SKY/WX    TMP DP  RH WIND       PRES   REMARKS
AUBURN +       FAIR      27  14  59 SW9G16    30.02S WCI  17
FORT WAYNE     FAIR      24  14  65 SW16      30.03F WCI  11
HUNTINGTON +   FAIR      23  13  64 SW12      30.04S WCI  12
KENDALLVILLE + FAIR      24  15  68 SW14      29.98F WCI  12

$$

INZ028-029-035-036-043>045-051>053-191000-
WEST CENTRAL INDIANA

CITY           SKY/WX    TMP DP  RH WIND       PRES   REMARKS
CRAWFORDSVL +  FAIR      20  14  75 MISG        N/A
GREENCASTLE +  FAIR      23  12  63 SW6       30.12F WCI  16
LAFAYETTE      FAIR      23  15  71 SW7       30.08S WCI  15
TERRE HAUTE    FAIR      19  11  70 S7        30.15S WCI  10

$$

INZ030>032-037>040-046>048-054>057-064-065-191000-
CENTRAL INDIANA

CITY           SKY/WX    TMP DP  RH WIND       PRES   REMARKS
FISHERS *+     FAIR      21  16  79 SW8       30.11F WCI  12
FRANKFORT +    FAIR      25  17  70 SW15G21   30.08F WCI  13
GREENWOOD *+   FAIR      24  13  62 SW9       30.14F WCI  14
INDIANAPOLIS   FAIR      20  11  68 SW9       30.12F WCI   9
-EAGLE CREEK   FAIR      22  12  65 SW8       30.11F WCI  12
MARION +       FAIR      22  14  71 SW13      30.08S WCI  10
MT COMFORT *+  FAIR      18  14  86 S7        30.12S WCI   8
SHELBYVILLE    FAIR      20   9  62 S8        30.14F WCI  10
ZIONSVILLE +   FAIR      22  13  67 SW13      30.09F WCI  10

$$

INZ033-034-041-042-049-050-058-059-191000-
EAST CENTRAL INDIANA

CITY           SKY/WX    TMP DP  RH WIND       PRES   REMARKS
MUNCIE         FAIR      23  11  60 SW13G23   30.07F WCI  11
RICHMOND +     FAIR      19  12  73 SW12      30.12F WCI   7

$$

INZ060-061-067>069-081>083-085>088-191000-
SOUTHWEST INDIANA

CITY           SKY/WX    TMP DP  RH WIND       PRES   REMARKS
EVANSVILLE     FAIR      23  14  68 SW9       30.23F WCI  13
HUNTINGBURG +  FAIR      18  11  74 S7        30.22F WCI   9
WASHINGTON +   FAIR      22  10  61 SW9       30.19F WCI  11

$$

INZ062-063-066-070>080-084-089>092-191000-
SOUTH CENTRAL AND SOUTHEAST INDIANA

CITY           SKY/WX    TMP DP  RH WIND       PRES   REMARKS
BATESVILLE *+    N/A    N/A N/A N/A MISG        N/A
BEDFORD +      FAIR      23  10  58 S7        30.17F WCI  15
BLOOMINGTON    FAIR      23  11  60 SW13      30.15F WCI  11
FRENCH LICK *+ FAIR      23   9  54 SW6       30.19F WCI  16
MADISON *+     FAIR      21  12  68 S6        30.22S WCI  14
NORTH VERNON + FAIR      18   9  68 S7        30.19S WCI   8
SEYMOUR +      FAIR      21   9  58 S6        30.19F WCI  14

$$





USA.gov is the U.S. government's official web portal to all federal, state and local government web resources and services.